Home > Time Zones > World Clock > Weather > Italy > Milan > Past weeks

Flag for Italy Weather past 2 weeks in Milan, Italy

Now
70 °F

Passing clouds.


Feels Like: 70 °F
Forecast: 48 / 72 °F
Wind: 10 mph from West

Location: Milan / Linate

Current Time: Mar 30, 2015 at 3:20:28 PM

Latest Report: Mar 30, 2015 at 2:50 PM


Visibility: N/A

Pressure: 29.62 "Hg

Humidity: 40%

Dew point: 45 °F

Location of MilanLocation

Historic Weather in Milan — Graph

°F

Milan temperature yesterday

Maximum temperature yesterday: 63 °F (at 1:50 PM)
Minimum temperature yesterday: 43 °F (at 7:20 AM)
Average temperature yesterday: 56 °F

Past Weeks' High & Low Weather Summary

 TemperatureHumidityPressure
High68 °F (Mar 27, 12:20 PM)100% (Mar 16, 9:50 AM)30.36 "Hg (Mar 16, 9:50 AM)
Low37 °F (Mar 23, 5:20 AM)15% (Mar 27, 4:50 PM)29.53 "Hg (Mar 25, 5:50 PM)
Average52 °F74%30.01 "Hg
* Reported Mar 15 12:20 PM — Mar 30 1:50 PM, Milan, Weather by CustomWeather, © 2015

Note: Actual official high and low records may vary slightly from our data, if they occured in-between our weather recording intervals... More about our weather records

Advertising

Milan weather history for previous 24 hours

 ConditionsComfort  
Time TempWeatherWind HumidityBarometerVisibility
1:50 PM
Mon, Mar 30
68 °FPassing clouds.10 mph46%29.65 "HgN/A
1:20 PM66 °FPassing clouds.10 mph49%29.65 "HgN/A
12:50 PM64 °FPassing clouds.12 mph52%29.65 "HgN/A
12:20 PM63 °FPassing clouds.9 mph59%29.65 "HgN/A
11:50 AM61 °FPassing clouds.10 mph63%29.65 "HgN/A
11:20 AM59 °FPassing clouds.8 mph68%29.68 "HgN/A
10:50 AM59 °FPassing clouds.9 mph68%29.68 "HgN/A
10:20 AM57 °FPassing clouds.6 mph67%29.68 "HgN/A
9:50 AM55 °FPassing clouds.5 mph67%29.65 "HgN/A
9:20 AM54 °FPassing clouds.3 mph77%29.65 "HgN/A
8:50 AM52 °FSunny.5 mph82%29.68 "Hg10 mi
8:20 AM50 °FPassing clouds.3 mph82%29.68 "HgN/A
7:50 AM48 °FClear.2 mph82%29.68 "Hg10 mi
7:20 AM46 °FClear.2 mph87%29.65 "Hg10 mi
6:50 AM46 °FClear.1 mph87%29.65 "Hg10 mi
6:20 AM46 °FClear.2 mph87%29.65 "Hg10 mi
5:50 AM46 °FClear.No wind87%29.65 "Hg10 mi
5:20 AM46 °FClear.1 mph93%29.65 "Hg10 mi
4:50 AM46 °FClear.2 mph93%29.65 "Hg10 mi
4:20 AM48 °FClear.No wind87%29.65 "Hg10 mi
3:50 AM50 °FClear.2 mph82%29.65 "Hg10 mi
3:20 AM50 °FClear.2 mph82%29.68 "Hg10 mi
2:50 AM50 °FClear.2 mph82%29.68 "Hg10 mi
2:20 AM54 °FClear.2 mph72%29.68 "Hg10 mi
1:50 AM52 °FClear.2 mph72%29.71 "Hg10 mi
1:20 AM52 °FClear.2 mph72%29.71 "Hg10 mi
12:50 AM55 °FPassing clouds.3 mph55%29.71 "HgN/A
12:20 AM54 °FClear.6 mph63%29.74 "Hg10 mi
11:50 PM
Sun, Mar 29
54 °FClear.2 mph67%29.74 "Hg10 mi
11:20 PM54 °FClear.2 mph67%29.74 "Hg10 mi
10:50 PM55 °FClear.1 mph63%29.74 "Hg10 mi
10:20 PM54 °FClear.1 mph63%29.77 "Hg10 mi
9:50 PM55 °FPassing clouds.1 mph63%29.77 "HgN/A
9:20 PM55 °FPassing clouds.2 mph59%29.77 "HgN/A
8:50 PM55 °FPassing clouds.2 mph59%29.77 "HgN/A
8:20 PM59 °FPassing clouds.3 mph48%29.77 "HgN/A
7:50 PM59 °FPassing clouds.3 mph48%29.77 "HgN/A
7:20 PM59 °FPassing clouds.5 mph48%29.80 "HgN/A
6:50 PM61 °FPassing clouds.5 mph42%29.80 "HgN/A
6:20 PM63 °FPassing clouds.5 mph42%29.80 "HgN/A
5:50 PM63 °FPassing clouds.5 mph42%29.80 "HgN/A
5:20 PM63 °FPassing clouds.5 mph49%29.77 "HgN/A
4:50 PM63 °FScattered clouds.5 mph45%29.80 "HgN/A
4:20 PM63 °FScattered clouds.5 mph45%29.80 "HgN/A
3:50 PM61 °FScattered clouds.5 mph48%29.83 "HgN/A
3:20 PM63 °FScattered clouds.5 mph42%29.83 "HgN/A
Weather by CustomWeather, © 2015

See weather overviewHow to use our weather pages